Regional Weather Roundup
Issued by NWS

Home | Current Version | Previous Version | Text Only | Print | Product List | Glossary Off
Versions: 1 2 3 4 5 6 7 8 9 10 11 12 13 14 15 16 17 18 19 20 21 22 23 24 25 26 27 28 29 30 31 32 33 34 35 36 37 38 39 40 41 42 43 44 45 46 47 48 49 50

428
ASUS43 KMPX 082101
RWRMN
WEATHER ROUNDUP FOR MINNESOTA
NATIONAL WEATHER SERVICE TWIN CITIES/CHANHASSEN MN
300 PM CST MON FEB 08 2016


NOTE: "FAIR" INDICATES FEW OR NO CLOUDS BELOW 12,000 FEET WITH NO
SIGNIFICANT WEATHER AND/OR OBSTRUCTIONS TO VISIBILITY. N/A MEANS
CURRENT SKY AND/OR WEATHER CONDITIONS ARE NOT AVAILABLE.

MNZ060>063-068>070-082200-
   Twin Cities Metro

CITY           SKY/WX    TMP DP  RH WIND       PRES   REMARKS
TWIN CITIES    FLURRIES  15   6  67 NW18G26   29.95R WCI  -2
ST PAUL        CLOUDY    16   5  62 NW18G30   29.96R WCI   0
CRYSTAL        CLOUDY    17   6  62 NW20G30   29.95R WCI   1
BLAINE         CLOUDY    18   7  62 NW18G28   29.94R WCI   2
LAKEVILLE      CLOUDY    14   7  73 NW18      29.93R WCI  -3
EDEN PRAIRIE   CLOUDY    17   6  62 NW16G25   29.95R WCI   2
SOUTH ST PAUL  CLOUDY    17   6  62 NW17G23   29.94R WCI   1
LAKE ELMO      CLOUDY    18   7  62 NW15G23   29.94R WCI   3
$$
MNZ001>005-007-008-013>017-022>024-027-028-082200-
   Northwest Minnesota

CITY           SKY/WX    TMP DP  RH WIND       PRES   REMARKS
BEMIDJI        CLOUDY     9   3  77 NW23G32   30.02S HAZE    WCI -11
HALLOCK        CLOUDY    12   5  73 NW28G33   30.20S HAZE    WCI  -9
ROSEAU         CLOUDY    10   3  72 NW24      30.11S HAZE    WCI -10
WARROAD        PTSUNNY    9   1  72 NW23      30.09S HAZE    WCI -12
CROOKSTON      SNOW      10   9  92 N28G36    30.19S VSB 1/2 WCI -11
FOSSTON        LGT SNOW   9   5  85 NW18G29   30.11R WCI -10
DETROIT LAKES  PTSUNNY   12   9  85 N22G36    30.09R HAZE    WCI  -7
MOORHEAD         N/A     14   9  79 N29       30.18R WCI  -7
PARK RAPIDS    CLOUDY    11   2  67 NW20G29   30.01R WCI  -7
MAHNOMEN       CLOUDY    11   6  80 N23       30.10S WCI  -9
$$
MNZ006-009>011-018-025>026-082200-
   North Central Minnesota

CITY           SKY/WX    TMP DP  RH WIND       PRES   REMARKS
BAUDETTE       LGT SNOW   5  -3  69 NW23      30.04R WCI -17
FLAG ISLAND    CLOUDY     5  -2  72 N21       30.08S WCI -16
INTL FALLS     LGT SNOW   6  -2  69 NW15      29.99R WCI -12
WASKISH        CLOUDY     9   1  72 NW15G21   30.04R WCI  -8
LONGVILLE      LGT SNOW  10   3  72 NW10G21   29.98R WCI  -3
GRAND RAPIDS   CLOUDY     9   0  66 NW23G31   29.93S WCI -12
CRANE LAKE     CLOUDY     7   1  78 NW9       29.96R WCI  -7
ORR            LGT SNOW   5  -2  72 NW10G17   29.91R WCI -10
COOK           LGT SNOW   7   0  72 NW13G21   29.93R WCI  -9
WALKER         LGT SNOW  10   3  75 NW20G30   30.00R WCI  -9
$$
MNZ012-019>021-037-082200-
   Northeast Minnesota

CITY           SKY/WX    TMP DP  RH WIND       PRES   REMARKS
DULUTH         FLURRIES  10   1  67 NW20G28   29.84R WCI  -9
ELY            LGT SNOW   7   1  78 NW13G23   29.86R WCI  -9
HIBBING        LGT SNOW   6   1  80 NW24G32   29.91R WCI -16
EVELETH        LGT SNOW  10   3  72 NW20G26   29.90R WCI  -8
DULUTH HARBOR  FLURRIES  14   5  67 NW13G21   29.93R WCI   0
TWO HARBORS    CLOUDY    16   5  62 NW10G23   29.84R WCI   3
SILVER BAY     LGT SNOW  16   5  62 NW8G21    29.82R WCI   5
GRAND MARAIS     N/A     13   3  64 VRB6      29.83R WCI   4
G MARAIS ARPRT LGT SNOW   7   0  72 NW21G30   29.71R WCI -13
$$
MNZ029>031-032-039>041-046>048-054>057-064-082200-
   West Central Minnesota

CITY           SKY/WX    TMP DP  RH WIND       PRES   REMARKS
FERGUS FALLS   CLOUDY    12   7  79 N24G36    30.15R HAZE    WCI  -8
WHEATON        PTSUNNY   18  10  73 NW29G39   30.16S WCI  -2
MORRIS         LGT SNOW  16   9  73 N33G43    30.07S WCI  -5
ALEXANDRIA     LGT SNOW  12   4  70 NW26G39   30.03R WCI  -8
ELBOW LAKE     LGT SNOW  12   7  78 NW28G35   30.10R WCI  -8
WADENA         CLOUDY    10   3  72 NW24G31   30.03R HAZE    WCI -10
GLENWOOD       CLOUDY    12   7  79 NW23G35   30.03R HAZE    WCI  -7
APPLETON       LGT SNOW  18  10  73 N28G37    30.10S WCI  -1
BENSON         PTSUNNY   18   7  62 N28G35    30.07R WCI  -1
ORTONVILLE     FLURRIES  18  10  73 N29G37    30.11S WCI  -2
MADISON        LGT SNOW  19  12  73 N31G39    30.11S VSB 3/4 WCI   0
WILLMAR        CLOUDY    18   9  68 NW31G37   30.04R WCI  -2
$$
MNZ033>034-036-042>043-049>051-058-059-082200-
   Central Minnesota

CITY           SKY/WX    TMP DP  RH WIND       PRES   REMARKS
ST CLOUD       CLOUDY    15   5  64 NW14G29   29.96S WCI   0
SAUK CENTRE    CLOUDY    13   6  72 NW29G37   30.01R HAZE    WCI  -8
PAYNESVILLE    CLOUDY    15   7  71 NW22G32   30.01R HAZE    WCI  -4
AITKIN         MIX PCPN  12   1  62 NW12G20   29.94S WCI  -2
PINE RIVER     FLURRIES  10   3  72 NW21G26   30.01R WCI  -9
BRAINERD       LGT SNOW  13   4  67 N22       29.97R WCI  -6
STAPLES        CLOUDY    10   3  72 NW26G32   30.00R WCI -11
LONG PRAIRIE   CLOUDY    12   5  73 NW22G31   30.00R HAZE    WCI  -7
LITTLE FALLS   CLOUDY    16   5  62 NW10G22   29.98S WCI   3
LITCHFIELD     CLOUDY    16   9  73 NW26G33   29.98F WCI  -3
BUFFALO        CLOUDY    16   7  65 NW14G24   29.98R WCI   2
MAPLE LAKE     CLOUDY    17   9  70 NW20      29.98S WCI   0
$$
MNZ037-044-045-052-053-082200-
   East Central Minnesota

CITY           SKY/WX    TMP DP  RH WIND       PRES   REMARKS
PRINCETON      CLOUDY    16   7  67 NW18G24   29.95R WCI  -1
MORA           LGT SNOW  14   5  67 NW20G25   29.95S WCI  -3
CAMBRIDGE      LGT SNOW  18   7  62 NW16G24   29.93R WCI   3
RUSH CITY      CLOUDY    15   5  64 NW15G23   29.94R WCI  -1
MOOSE LAKE     CLOUDY    14   3  62 NW15G23   29.90R WCI  -1
HINCKLEY       CLOUDY    16   5  62 NW10G20   29.93R WCI   3
CLOQUET        FLURRIES  12   1  62 NW18G30   29.87S WCI  -5
MCGREGOR       CLOUDY    12   5  73 NW18      29.94R WCI  -5
$$
MNZ071>073-080-081-089-090-097-098-082200-
   Southwest Minnesota

CITY           SKY/WX    TMP DP  RH WIND       PRES   REMARKS
MONTEVIDEO     LGT SNOW  18  14  86 N31G39    30.09R WCI  -2
GRANITE FALLS  PTSUNNY   20  10  67 NW28G39   30.09R WCI   2
CANBY          LGT SNOW  22  17  81 NW23G29   30.11S WCI   6
MARSHALL       LGT SNOW  17  12  80 N26G37    30.06R VSB 1   WCI  -2
REDWOOD FALLS  FLURRIES  18   8  65 NW23G37   30.03S WCI   0
OLIVIA         CLOUDY    18  10  73 NW28G39   30.02R WCI  -1
PIPESTONE      SUNNY     21  10  63 N20G36    30.05S WCI   6
WINDOM         LGT SNOW  16  10  79 NW32G41   30.00R WCI  -5
WORTHINGTON    CLOUDY   N/A N/A N/A NW32G38   30.04R VSB 1/2
JACKSON        CLOUDY    18  10  73 NW36G44   29.99S WCI  -3
TRACY          LGT SNOW  17  13  84 N24G36    30.06R VSB 3/4 WCI  -2
SLAYTON        LGT SNOW  15  12  88 NW22G30   30.04R WCI  -3
$$
MNZ065>067-074>077-082>085-091>093-082200-
   South Central Minnesota

CITY           SKY/WX    TMP DP  RH WIND       PRES   REMARKS
MANKATO        CLOUDY   N/A N/A N/A NW22G30   29.96S
NEW ULM        LGT SNOW  16   9  73 NW30      29.96F WCI  -4
ST JAMES       LGT SNOW  18  12  79 NW26G37   30.01S WCI  -1
FAIRMONT       CLOUDY    16   9  73 NW26G33   29.97R VSB 3/4 WCI  -3
GLENCOE        CLOUDY    17  10  75 NW22G28   29.97S WCI  -1
FARIBAULT      CLOUDY    16   7  67 NW13G18   29.95R WCI   2
OWATONNA       CLOUDY    16   9  73 NW24      29.93R HAZE    WCI  -3
WASECA         LGT SNOW  18  10  73 NW21G30   29.97R WCI   1
ALBERT LEA     LGT SNOW  14   9  79 NW18G30   29.92R WCI  -3
$$
MNZ078>079-086>088-094>096-082200-
   Southeast Minnesota

CITY           SKY/WX    TMP DP  RH WIND       PRES   REMARKS
ROCHESTER      CLOUDY    13   5  70 NW28G36   29.86R BLWGSNOWWCI  -8
RED WING       CLOUDY    18   3  53 N10G20    29.92R WCI   6
STANTON        CLOUDY    17   7  65 NW21G26   29.93R WCI  -1
DODGE CENTER   CLOUDY    14   7  73 NW22G29   29.88R WCI  -4
WINONA         CLOUDY    18   9  68 NW18G29   29.89R WCI   2
AUSTIN         CLOUDY    12   7  79 NW21G30   29.90R HAZE    WCI  -6
PRESTON        CLOUDY    13   4  69 N18G25    29.86R WCI  -4
$$
ABBREVIATIONS USED IN REMARKS
   TC - TEMPERATURES IN CELSIUS
  WCI - WIND CHILL INDEX
   HX - HEAT INDEX
  VSB - VISIBILITY
$$




USA.gov is the U.S. government's official web portal to all federal, state and local government web resources and services.